Weather History for South Bend, IN

Change the Weather History Date:

Thursday, November 8, 2012

  Actual Average Record
Temperature  
Mean Temperature 36 °F 44 °F  
Max Temperature 45 °F 52 °F 72 °F (1931)
Min Temperature 26 °F 36 °F 15 °F (1991)
Degree Days  
Heating Degree Days 29 21  
Month to date heating degree days 223 156  
Since 1 July heating degree days 806 697  
Cooling Degree Days 0 0  
Month to date cooling degree days 0 0  
Year to date cooling degree days 1115 773  
Moisture  
Dew Point 31 °F    
Average Humidity 79    
Maximum Humidity 92    
Minimum Humidity 65    
Precipitation  
Precipitation 0.00 in 0.10 in 0.71 in (1966)
Month to date precipitation 0.02 0.85  
Year to date precipitation 31.02 32.97  
Snow  
Snow 0.00 in 0.10 in 2.20 in (1955)
Month to date snowfall 0.0 0.6  
Since 1 July snowfall 0.0 1.0  
Since 1 September snowfall 1.0  
Snow Depth 0.00 in    
Sea Level Pressure  
Sea Level Pressure 30.20 in    
Wind  
Wind Speed 4 mph (SSW)    
Max Wind Speed 12 mph    
Max Gust Speed 14 mph    
Visibility 6 miles    
Events      
T = Trace of Precipitation, MM = Missing Value Source: NWS Daily Summary

Daily Weather History Graph

Daily Weather History Graph

Search for Another Location

Airport:

Trip Planner

Search our weather history database for the weather conditions in past years. The results will help you decide how hot, cold, wet, or windy it might be!

Date:

Astronomy

Nov. 08, 2012 Rise Set
Actual Time 7:26 AM EST 5:31 PM EST
Civil Twilight 6:57 AM EST 6:00 PM EST
Nautical Twilight 6:23 AM EST 6:33 PM EST
Astronomical Twilight 5:51 AM EST 7:06 PM EST
Moon 1:16 AM EST (11/8) 2:16 PM EST (11/8)
Length of Visible Light 11h 03m
Length of Day
10h 04m
Waning Crescent, 33% of the Moon is Illuminated
Nov 8
Waning Crescent
Nov 13
New
Nov 20
First Quarter
Nov 28
Full
Dec 6
Last Quarter

Hourly Weather History & Observations

Time (EST) Temp. Windchill Dew Point Humidity Pressure Visibility Wind Dir Wind Speed Gust Speed Precip Events Conditions
12:54 AM 30.9 °F - 27.0 °F 85% 30.18 in 6.0 mi Calm Calm - N/A   Clear
1:54 AM 28.9 °F 25.2 °F 26.1 °F 89% 30.18 in 4.0 mi WNW 3.5 mph - N/A   Clear
2:54 AM 28.9 °F - 25.0 °F 85% 30.19 in 4.0 mi Calm Calm - N/A   Clear
3:54 AM 28.9 °F - 26.1 °F 89% 30.19 in 5.0 mi Calm Calm - N/A   Clear
4:54 AM 26.1 °F - 23.0 °F 88% 30.20 in 4.0 mi Calm Calm - N/A   Clear
5:54 AM 27.0 °F - 23.0 °F 85% 30.22 in 6.0 mi Calm Calm - N/A   Clear
6:54 AM 28.0 °F - 26.1 °F 92% 30.22 in 4.0 mi Calm Calm - N/A   Overcast
7:11 AM 30.2 °F - 28.4 °F 93% 30.20 in 2.5 mi Calm Calm - N/A   Overcast
7:54 AM 30.9 °F - 28.9 °F 92% 30.23 in 2.5 mi Calm Calm - N/A   Overcast
8:54 AM 32.0 °F 28.7 °F 30.0 °F 92% 30.25 in 3.0 mi South 3.5 mph - N/A   Overcast
9:03 AM 33.8 °F - 30.2 °F 87% 30.22 in 2.5 mi Calm Calm - N/A   Overcast
9:54 AM 36.0 °F - 32.0 °F 86% 30.25 in 2.5 mi Calm Calm - N/A   Overcast
10:54 AM 39.0 °F 36.8 °F 35.1 °F 86% 30.25 in 2.5 mi South 3.5 mph - N/A   Overcast
11:01 AM 39.2 °F 35.9 °F 35.6 °F 87% 30.23 in 4.0 mi SSW 4.6 mph - N/A   Haze
11:05 AM 39.2 °F 37.0 °F 35.6 °F 87% 30.23 in 2.5 mi SSW 3.5 mph - N/A   Haze
11:54 AM 43.0 °F 38.8 °F 37.9 °F 82% 30.24 in 3.0 mi SW 6.9 mph - N/A   Haze
12:54 PM 45.0 °F 41.2 °F 37.9 °F 76% 30.22 in 4.0 mi SW 6.9 mph - N/A   Haze
1:54 PM 45.0 °F 41.2 °F 37.0 °F 74% 30.21 in 5.0 mi SW 6.9 mph - N/A   Haze
2:54 PM 45.0 °F 39.7 °F 35.1 °F 68% 30.19 in 7.0 mi SSW 10.4 mph - N/A   Overcast
3:36 PM 44.6 °F 40.2 °F 35.6 °F 71% 30.16 in 8.0 mi WSW 8.1 mph - N/A   Overcast
3:54 PM 45.0 °F 40.1 °F 34.0 °F 65% 30.19 in 9.0 mi SW 9.2 mph - N/A   Overcast
4:54 PM 45.0 °F 40.1 °F 34.0 °F 65% 30.18 in 7.0 mi South 9.2 mph - N/A   Overcast
5:54 PM 44.1 °F 39.5 °F 33.1 °F 65% 30.18 in 10.0 mi SW 8.1 mph - N/A   Overcast
6:54 PM 43.0 °F 40.3 °F 33.1 °F 68% 30.19 in 10.0 mi SSW 4.6 mph - N/A   Overcast
7:54 PM 43.0 °F 38.8 °F 33.1 °F 68% 30.18 in 9.0 mi SSW 6.9 mph - N/A   Overcast
8:54 PM 39.0 °F 34.8 °F 32.0 °F 76% 30.17 in 8.0 mi South 5.8 mph - N/A   Partly Cloudy
9:54 PM 39.0 °F 35.7 °F 32.0 °F 76% 30.17 in 8.0 mi South 4.6 mph - N/A   Clear
10:54 PM 37.9 °F - 30.9 °F 76% 30.16 in 7.0 mi Calm Calm - N/A   Clear
11:54 PM 36.0 °F 33.3 °F 30.0 °F 79% 30.16 in 6.0 mi South 3.5 mph - N/A   Haze